DW4230 Weather Reports


Display with metric or nautical units.
time (UTC)temp
F
wind
direction
speed
MPH
gust
MPH
rain 1hr
in
rain 24hr
in
rain mn
in
humidity
%
barometer
mb
20210927051511 63 287 4.0 9.0 0.00 0.60 0.00 70 1013.1
20210927050147 63 279 5.0 11.0 0.00 0.60 0.00 69 1013.0
20210927044608 63 290 5.0 12.0 0.00 0.60 0.00 70 1012.9
20210927043027 63 297 3.0 10.0 0.00 0.60 0.00 72 1012.9
20210927041510 63 287 3.0 11.0 0.00 0.60 0.00 72 1013.0
20210927040010 63 292 5.0 10.0 0.00 0.60 0.60 73 1012.9
20210927034548 62 276 4.0 10.0 0.00 0.60 0.60 74 1012.9
20210927033014 62 309 3.0 8.0 0.00 0.60 0.60 74 1012.9
20210927031550 62 294 1.0 9.0 0.00 0.60 0.60 73 1012.9
20210927030026 62 305 2.0 5.0 0.00 0.60 0.60 74 1012.9
20210927024533 62 290 1.0 5.0 0.00 0.60 0.60 72 1012.9
20210927023016 63 270 1.0 6.0 0.00 0.60 0.60 71 1012.9
20210927021515 63 301 1.0 6.0 0.00 0.60 0.60 70 1012.6
20210927020120 63 316 1.0 5.0 0.00 0.60 0.60 72 1012.6
20210927014627 63 305 0.0 7.0 0.00 0.60 0.60 70 1012.5
20210927011532 63 303 1.0 6.0 0.00 0.60 0.60 69 1012.0
20210927010021 63 319 2.0 6.0 0.00 0.60 0.60 67 1011.9
20210927004626 64 318 0.0 6.0 0.00 0.60 0.60 67 1011.7
20210927003051 64 272 1.0 6.0 0.00 0.60 0.60 65 1011.7
20210927001620 65 301 1.0 6.0 0.00 0.60 0.60 64 1011.4
20210927000135 65 352 0.0 8.0 0.00 0.60 0.60 64 1011.2
20210926233202 65 7 1.0 9.0 0.00 0.60 0.60 59 1010.8
20210926231545 66 340 2.0 11.0 0.00 0.60 0.60 58 1010.7
20210926230106 66 8 0.0 11.0 0.00 0.60 0.60 58 1010.4
20210926224607 67 346 4.0 13.0 0.00 0.60 0.60 56 1010.3
20210926223044 67 309 5.0 13.0 0.00 0.60 0.60 55 1009.9
20210926221552 68 357 6.0 14.0 0.00 0.60 0.60 54 1009.6
20210926220121 68 330 5.0 18.0 0.00 0.60 0.60 51 1009.3
20210926214548 69 345 7.0 19.0 0.00 0.60 0.60 49 1009.0
20210926213054 70 347 7.0 19.0 0.00 0.60 0.60 50 1008.5
20210926211503 71 12 4.0 15.0 0.00 0.60 0.60 51 1008.1
20210926203239 73 333 5.0 15.0 0.00 0.60 0.60 56 1007.6
20210926201639 73 320 5.0 14.0 0.00 0.60 0.60 55 1007.5
20210926200042 73 319 7.0 15.0 0.00 0.63 0.60 58 1007.3
20210926194634 74 20 5.0 16.0 0.00 0.63 0.60 59 1007.1
20210926193058 74 320 5.0 12.0 0.00 0.63 0.60 61 1007.1
20210926191638 73 327 7.0 15.0 0.00 0.63 0.60 60 1007.1
20210926190117 74 283 6.0 16.0 0.00 0.65 0.60 59 1006.9
20210926184610 74 278 6.0 14.0 0.00 0.65 0.60 59 1006.9
20210926183103 74 310 4.0 14.0 0.00 0.65 0.60 61 1006.9
20210926181554 72 282 6.0 12.0 0.00 0.65 0.60 67 1007.0
20210926180015 74 297 5.0 12.0 0.00 0.65 0.60 63 1007.0
20210926174544 74 315 3.0 11.0 0.00 0.65 0.60 64 1007.1
20210926173002 73 321 1.0 7.0 0.00 0.65 0.60 65 1007.1
20210926171510 72 337 3.0 7.0 0.00 0.65 0.60 67 1007.3
20210926170006 72 317 3.0 8.0 0.00 0.65 0.60 71 1007.3
20210926163126 72 327 2.0 9.0 0.00 0.65 0.60 73 1007.5
20210926161518 71 308 3.0 9.0 0.00 0.65 0.60 74 1007.5
20210926160016 70 319 4.0 10.0 0.00 0.65 0.60 76 1007.7
20210926151555 69 293 2.0 8.0 0.00 0.65 0.60 82 1008.2
20210926150121 68 354 3.0 9.0 0.00 0.65 0.60 86 1008.3
20210926144529 68 328 3.0 10.0 0.00 0.65 0.60 89 1008.1
20210926140002 66 352 1.0 8.0 0.00 0.65 0.60 93 1008.1
20210926134533 65 350 0.0 6.0 0.00 0.65 0.60 94 1008.0
20210926133038 65 3 0.0 6.0 0.00 0.65 0.60 95 1008.1
20210926131522 65 343 2.0 7.0 0.00 0.65 0.60 95 1008.0
20210926130113 64 15 1.0 8.0 0.00 0.65 0.60 96 1007.8
20210926121509 63 40 3.0 8.0 0.00 0.65 0.60 96 1007.8
20210926120151 63 349 2.0 5.0 0.00 0.65 0.60 96 1007.8
20210926114552 63 345 1.0 6.0 0.00 0.65 0.60 96 1007.6
20210926113132 63 349 2.0 7.0 0.00 0.65 0.60 96 1007.9
20210926103009 63 358 4.0 11.0 0.00 0.65 0.60 96 1006.8
20210926094534 63 29 5.0 11.0 0.01 0.65 0.60 95 1007.0
20210926091612 64 27 5.0 9.0 0.03 0.65 0.60 95 1007.2
20210926090056 64 3 3.0 8.0 0.10 0.65 0.60 95 1007.3
20210926084556 64 25 6.0 11.0 0.28 0.64 0.59 95 1007.2
20210926083054 64 355 6.0 17.0 0.38 0.63 0.57 95 1007.1
20210926080141 65 353 6.0 14.0 0.44 0.56 0.51 95 1008.2
20210926074719 65 357 2.0 12.0 0.28 0.35 0.30 95 1008.3
20210926073204 65 277 3.0 10.0 0.20 0.25 0.20 95 1008.5
20210926071501 66 331 2.0 11.0 0.18 0.23 0.18 95 1008.3
20210926063109 66 29 3.0 11.0 0.00 0.05 0.00 95 1008.0
20210926061545 66 44 0.0 0.0 0.00 0.05 0.00 95 1008.5
20210926060136 66 42 1.0 6.0 0.00 0.05 0.00 95 1009.1
20210926054526 66 38 0.0 0.0 0.00 0.05 0.00 95 1009.5